DELTA 1 DEB

Satellite information

Favourite Embed

Satellite Type and Status

DEBRISIN ORBIT

Key statistics

Satellite DELTA 1 DEB at a glance.

Uptime

19502

Days in orbit

Revolutions

≈ 13.5

Per day

Orbit

SSO

Sun Synchronous Orbit

Inclination

98.9

Latest

Satellite identification and parameters

Extended collection of information and parameters for DELTA 1 DEB.

Object identification

Identified? True

Debris? True

Object name: DELTA 1 DEB

International designator: 1972-058KC

Object number (NORAD): 42569

Object ID (CCSDS): 42569

Country: UNITED STATES OF AMERICA (US)

Current information (Y/N): Y

RCS size: SMALL

Orbital parameters

Period: 107.046 minutes

Inclination: 98.8797 deg

SMA: 7468.044 km

Apoapsis: 1349.542 km

Periapsis: 830.275 km

RAAN: 122.2236 deg

Eccentricy: 0.03476596

Argument of periapsis: 140.5902 deg

Mean anomaly: 222.1085 deg

Mean motion: 13.45217411 rev/day

Mean motion (dot): 0.0000124 rev/day2

B* drag term: 0.0014998679 1/REarth

Two-line elements (TLE)

Creation date: Dec. 13, 2025, 5:47 p.m.

Reference frame: TEME

Reference center: EARTH

Epoch: Dec. 13, 2025, 3:01 a.m. UTC

TLE line 0: 0 DELTA 1 DEB

TLE line 1: 1 42569U 72058KC 25347.12638530 .00001240 00000-0 14999-2 0 9998

TLE line 2: 2 42569 98.8797 122.2236 0347660 140.5902 222.1085 13.45217411576693

Live tracking on map

Real-time ground track for satellite DELTA 1 DEB.

In-orbit conjunctions

A list of the most updated potential collisions computed for object DELTA 1 DEB.

Target Orbit TCA Probability of collision Miss distance Type
OBJECT A LEO 2025-02-15 18:30:05 0.0001141557 616.0 (m) UNKNOWN
CZ-6A DEB SSO 2025-02-04 00:39:35 0.0001577385 182.0 (m) DEBRIS
SL-3 R/B LEO 2024-10-26 03:35:49 0.0002049518 495.0 (m) ROCKET BODY

Associated space launch

Earth observation satellite

DELTA 1 DEB was lifted into orbit during the mission ‘Delta 0900 | Landsat 1’, on board a Delta 0900 space rocket.

The launch took place on July 23, 1972, 6:06 p.m. from Space Launch Complex 2W.

For more information about the launch, click the button.

Launch to space Delta 0900 | Landsat 1
Delta 0900 | Landsat 1

Agency: N/A

Status: Launch Successful

Launch date: July 23, 1972, 6:06 p.m. UTC

Rocket: Delta 0900

Launch pad: Space Launch Complex 2W

Location: Vandenberg SFB, CA, USA

...

Latest news about this satellite

There are no fresh news available about this satellite. Check back as we update our databases every day.


Newsletter sign-up

Weekly statistics, charts and insights to help you stay on top of the space industry.